| time (UTC) | temp C | wind direction | speed KPH | gust KPH | rain 1hr cm | rain 24hr cm | rain mn cm | humidity % | barometer mb |
| 20260508090007 | 1 | 249 | 0.0 | 1.6 | 0.00 | 0.00 | 0.00 | 87 | 1005.0 |
| 20260508084505 | 1 | 284 | 0.0 | 3.2 | 0.00 | 0.00 | 0.00 | 87 | 1005.0 |
| 20260508083007 | 2 | 284 | 0.0 | 0.0 | 0.00 | 0.00 | 0.00 | 84 | 1005.0 |
| 20260508081503 | 2 | 281 | 0.0 | 4.8 | 0.00 | 0.00 | 0.00 | 85 | 1004.8 |
| 20260508080002 | 2 | 293 | 0.0 | 0.0 | 0.00 | 0.00 | 0.00 | 82 | 1004.9 |
| 20260508074500 | 2 | 317 | 0.0 | 4.8 | 0.00 | 0.03 | 0.00 | 83 | 1004.6 |
| 20260508073112 | 3 | 242 | 1.6 | 4.8 | 0.00 | 0.03 | 0.00 | 79 | 1004.6 |
| 20260508071606 | 3 | 247 | 1.6 | 3.2 | 0.00 | 0.03 | 0.00 | 78 | 1004.6 |
| 20260508070101 | 3 | 304 | 1.6 | 8.0 | 0.00 | 0.03 | 0.00 | 77 | 1004.7 |
| 20260508064615 | 3 | 302 | 3.2 | 6.4 | 0.00 | 0.28 | 0.00 | 78 | 1004.7 |
| 20260508063109 | 2 | 261 | 1.6 | 8.0 | 0.00 | 0.28 | 0.00 | 81 | 1004.7 |
| 20260508061607 | 2 | 264 | 1.6 | 4.8 | 0.00 | 0.28 | 0.00 | 82 | 1004.9 |
| 20260508060104 | 2 | 256 | 1.6 | 4.8 | 0.00 | 0.28 | 0.00 | 82 | 1005.0 |
| 20260508054552 | 2 | 264 | 0.0 | 3.2 | 0.00 | 0.38 | 0.00 | 81 | 1005.1 |
| 20260508053055 | 2 | 249 | 0.0 | 6.4 | 0.00 | 0.38 | 0.00 | 81 | 1005.1 |
| 20260508051605 | 2 | 198 | 0.0 | 3.2 | 0.00 | 0.38 | 0.00 | 82 | 1005.3 |
| 20260508050046 | 3 | 131 | 0.0 | 0.0 | 0.00 | 0.38 | 0.00 | 75 | 1005.5 |
| 20260508044549 | 4 | 108 | 0.0 | 0.0 | 0.00 | 0.43 | 0.00 | 74 | 1005.6 |
| 20260508043044 | 3 | 244 | 0.0 | 0.0 | 0.00 | 0.43 | 0.00 | 78 | 1005.6 |
| 20260508041540 | 3 | 244 | 0.0 | 0.0 | 0.00 | 0.43 | 0.00 | 79 | 1005.7 |
| 20260508040048 | 4 | 244 | 0.0 | 0.0 | 0.00 | 0.43 | 0.00 | 75 | 1005.9 |
| 20260508034544 | 5 | 179 | 0.0 | 0.0 | 0.00 | 0.48 | 0.43 | 74 | 1005.8 |
| 20260508033031 | 6 | 111 | 0.0 | 1.6 | 0.00 | 0.48 | 0.43 | 65 | 1005.8 |
| 20260508031535 | 6 | 118 | 3.2 | 4.8 | 0.00 | 0.48 | 0.43 | 66 | 1005.7 |
| 20260508030028 | 6 | 283 | 0.0 | 8.0 | 0.00 | 0.48 | 0.43 | 65 | 1005.5 |
| 20260508024547 | 7 | 275 | 3.2 | 6.4 | 0.00 | 0.48 | 0.43 | 61 | 1005.6 |
| 20260508023025 | 7 | 321 | 0.0 | 3.2 | 0.00 | 0.48 | 0.43 | 57 | 1005.6 |
| 20260508021525 | 7 | 284 | 0.0 | 6.4 | 0.00 | 0.48 | 0.43 | 57 | 1005.6 |
| 20260508020024 | 7 | 255 | 3.2 | 9.7 | 0.00 | 0.48 | 0.43 | 56 | 1005.7 |
| 20260508014525 | 7 | 285 | 4.8 | 11.3 | 0.00 | 0.53 | 0.43 | 55 | 1005.8 |
| 20260508013023 | 8 | 296 | 1.6 | 8.0 | 0.00 | 0.53 | 0.43 | 56 | 1005.7 |
| 20260508011529 | 8 | 290 | 4.8 | 9.7 | 0.00 | 0.53 | 0.43 | 55 | 1005.7 |
| 20260508010022 | 8 | 277 | 1.6 | 8.0 | 0.00 | 0.53 | 0.43 | 55 | 1005.6 |
| 20260508004537 | 9 | 313 | 1.6 | 6.4 | 0.00 | 0.56 | 0.43 | 53 | 1005.7 |
| 20260508003021 | 9 | 317 | 1.6 | 9.7 | 0.00 | 0.56 | 0.43 | 52 | 1005.4 |
| 20260508001531 | 10 | 247 | 0.0 | 16.1 | 0.00 | 0.56 | 0.43 | 52 | 1005.4 |
| 20260508000019 | 10 | 274 | 1.6 | 9.7 | 0.00 | 0.56 | 0.43 | 51 | 1005.1 |
| 20260507234519 | 11 | 340 | 9.7 | 22.5 | 0.00 | 1.27 | 0.43 | 47 | 1004.9 |
| 20260507233018 | 11 | 311 | 12.9 | 25.7 | 0.00 | 1.27 | 0.43 | 46 | 1004.5 |
| 20260507231517 | 12 | 295 | 12.9 | 22.5 | 0.00 | 1.27 | 0.43 | 48 | 1004.1 |
| 20260507230015 | 12 | 304 | 6.4 | 19.3 | 0.00 | 1.27 | 0.43 | 54 | 1003.6 |
| 20260507224515 | 13 | 325 | 11.3 | 20.9 | 0.00 | 1.57 | 0.43 | 55 | 1003.3 |
| 20260507223015 | 13 | 307 | 8.0 | 24.1 | 0.00 | 1.57 | 0.43 | 55 | 1003.1 |
| 20260507221514 | 14 | 261 | 6.4 | 19.3 | 0.00 | 1.57 | 0.43 | 59 | 1002.9 |
| 20260507220014 | 13 | 338 | 11.3 | 20.9 | 0.00 | 1.57 | 0.43 | 61 | 1002.7 |
| 20260507214513 | 13 | 289 | 3.2 | 8.0 | 0.00 | 1.96 | 0.43 | 64 | 1002.7 |
| 20260507213016 | 14 | 67 | 1.6 | 4.8 | 0.00 | 1.96 | 0.43 | 66 | 1002.5 |
| 20260507211513 | 15 | 355 | 1.6 | 8.0 | 0.00 | 1.96 | 0.43 | 65 | 1002.3 |
| 20260507210011 | 15 | 342 | 1.6 | 6.4 | 0.00 | 1.96 | 0.43 | 68 | 1002.4 |
| 20260507204511 | 13 | 13 | 3.2 | 9.7 | 0.00 | 2.21 | 0.43 | 68 | 1002.3 |
| 20260507203016 | 14 | 12 | 1.6 | 8.0 | 0.00 | 2.21 | 0.43 | 65 | 1002.1 |
| 20260507201511 | 14 | 297 | 1.6 | 11.3 | 0.00 | 2.21 | 0.43 | 62 | 1002.0 |
| 20260507200010 | 15 | 355 | 6.4 | 16.1 | 0.00 | 2.21 | 0.43 | 60 | 1002.0 |
| 20260507194516 | 15 | 292 | 6.4 | 14.5 | 0.00 | 2.24 | 0.43 | 59 | 1001.9 |
| 20260507193009 | 15 | 198 | 3.2 | 8.0 | 0.00 | 2.24 | 0.43 | 65 | 1002.0 |
| 20260507191511 | 13 | 237 | 1.6 | 9.7 | 0.00 | 2.24 | 0.43 | 63 | 1002.1 |
| 20260507190011 | 13 | 214 | 3.2 | 9.7 | 0.00 | 2.24 | 0.43 | 71 | 1002.5 |
| 20260507184504 | 13 | 296 | 4.8 | 11.3 | 0.00 | 2.24 | 0.43 | 66 | 1002.6 |
| 20260507183010 | 14 | 222 | 4.8 | 12.9 | 0.00 | 2.24 | 0.43 | 59 | 1002.7 |
| 20260507181505 | 15 | 324 | 4.8 | 11.3 | 0.00 | 2.24 | 0.43 | 57 | 1002.6 |
| 20260507180006 | 15 | 262 | 4.8 | 11.3 | 0.00 | 2.24 | 0.43 | 59 | 1002.6 |
| 20260507174503 | 15 | 215 | 3.2 | 9.7 | 0.00 | 2.24 | 0.43 | 57 | 1002.7 |
| 20260507173001 | 15 | 191 | 6.4 | 19.3 | 0.00 | 2.24 | 0.43 | 54 | 1002.7 |
| 20260507171501 | 15 | 285 | 4.8 | 12.9 | 0.00 | 2.24 | 0.43 | 53 | 1002.6 |
| 20260507164558 | 15 | 254 | 3.2 | 17.7 | 0.00 | 2.24 | 0.43 | 56 | 1003.0 |
| 20260507163054 | 15 | 338 | 6.4 | 16.1 | 0.00 | 2.24 | 0.43 | 59 | 1003.3 |
| 20260507161601 | 15 | 300 | 3.2 | 8.0 | 0.00 | 2.24 | 0.43 | 61 | 1003.5 |
| 20260507160059 | 14 | 278 | 4.8 | 12.9 | 0.00 | 2.24 | 0.43 | 60 | 1003.5 |
| 20260507154550 | 14 | 277 | 3.2 | 8.0 | 0.00 | 2.24 | 0.43 | 63 | 1003.5 |
| 20260507153052 | 13 | 174 | 0.0 | 8.0 | 0.00 | 2.24 | 0.43 | 68 | 1003.8 |
| 20260507151544 | 13 | 220 | 6.4 | 12.9 | 0.00 | 2.24 | 0.43 | 65 | 1004.0 |
| 20260507150043 | 13 | 342 | 1.6 | 8.0 | 0.00 | 2.24 | 0.43 | 71 | 1004.3 |
| 20260507144541 | 13 | 286 | 4.8 | 11.3 | 0.00 | 2.24 | 0.43 | 72 | 1004.4 |
| 20260507143051 | 12 | 118 | 3.2 | 8.0 | 0.00 | 2.24 | 0.43 | 69 | 1004.5 |
| 20260507141548 | 12 | 220 | 1.6 | 4.8 | 0.00 | 2.24 | 0.43 | 71 | 1004.6 |
| 20260507140034 | 11 | 227 | 0.0 | 8.0 | 0.00 | 2.24 | 0.43 | 76 | 1004.7 |
| 20260507134534 | 11 | 311 | 3.2 | 8.0 | 0.00 | 2.24 | 0.43 | 79 | 1004.8 |
| 20260507133050 | 10 | 234 | 3.2 | 9.7 | 0.00 | 2.24 | 0.43 | 78 | 1005.0 |
| 20260507131529 | 10 | 280 | 0.0 | 6.4 | 0.00 | 2.24 | 0.43 | 83 | 1004.9 |
| 20260507130034 | 10 | 275 | 4.8 | 9.7 | 0.00 | 2.24 | 0.43 | 83 | 1004.9 |
| 20260507124529 | 10 | 296 | 4.8 | 9.7 | 0.00 | 2.24 | 0.43 | 84 | 1005.1 |
| 20260507123035 | 10 | 295 | 3.2 | 9.7 | 0.00 | 2.24 | 0.43 | 86 | 1005.3 |
| 20260507121526 | 9 | 308 | 6.4 | 11.3 | 0.00 | 2.24 | 0.43 | 86 | 1005.3 |
| 20260507120024 | 8 | 265 | 1.6 | 6.4 | 0.00 | 2.24 | 0.43 | 90 | 1005.2 |
| 20260507114524 | 8 | 210 | 3.2 | 8.0 | 0.00 | 2.24 | 0.43 | 90 | 1005.6 |
| 20260507113023 | 8 | 254 | 3.2 | 9.7 | 0.00 | 2.24 | 0.43 | 92 | 1005.2 |
| 20260507111520 | 7 | 303 | 6.4 | 12.9 | 0.00 | 2.24 | 0.43 | 91 | 1005.1 |
| 20260507110020 | 7 | 328 | 4.8 | 11.3 | 0.00 | 2.24 | 0.43 | 92 | 1005.3 |
| 20260507104517 | 7 | 275 | 6.4 | 12.9 | 0.00 | 2.24 | 0.43 | 95 | 1004.9 |
| 20260507103016 | 6 | 284 | 4.8 | 11.3 | 0.00 | 2.24 | 0.43 | 96 | 1004.8 |
| 20260507101515 | 6 | 294 | 3.2 | 8.0 | 0.00 | 2.24 | 0.43 | 96 | 1004.7 |
| 20260507100020 | 6 | 342 | 0.0 | 4.8 | 0.00 | 2.24 | 0.43 | 97 | 1004.7 |
| 20260507094512 | 7 | 269 | 1.6 | 4.8 | 0.00 | 2.24 | 0.43 | 97 | 1004.9 |
| 20260507093012 | 7 | 302 | 1.6 | 6.4 | 0.00 | 2.24 | 0.43 | 97 | 1005.1 |
| 20260507091511 | 7 | 287 | 0.0 | 3.2 | 0.00 | 2.24 | 0.43 | 96 | 1004.2 |